GW5833 Weather Reports


time (UTC)temp
F
wind
direction
speed
knots
gust
knots
rain 1hr
in
rain 24hr
in
rain mn
in
humidity
%
barometer
mb
20260506155940 52 75 1.7 7.8 0.00 0.00 0.00 47 1017.6
20260506155438 52 50 5.2 6.1 0.00 0.00 0.00 47 1017.9
20260506153605 51 132 3.5 7.0 0.00 0.00 0.00 49 1018.0
20260506153102 51 71 3.5 7.8 0.00 0.00 0.00 49 1018.1
20260506152559 51 87 4.3 5.2 0.00 0.00 0.00 49 1018.1
20260506152057 50 66 3.5 7.0 0.00 0.00 0.00 49 1018.0
20260506151555 50 65 9.6 10.4 0.00 0.00 0.00 49 1018.0
20260506151052 50 61 5.2 6.1 0.00 0.00 0.00 50 1017.7
20260506150548 51 110 6.1 9.6 0.00 0.00 0.00 49 1018.0
20260506150045 50 66 5.2 7.8 0.00 0.00 0.00 50 1017.7
20260506145541 50 60 7.0 10.4 0.00 0.00 0.00 49 1017.9
20260506145039 50 95 1.7 6.1 0.00 0.00 0.00 50 1018.1
20260506144536 49 86 1.7 8.7 0.00 0.00 0.00 52 1018.2
20260506144033 49 73 6.1 7.0 0.00 0.00 0.00 53 1018.0
20260506143531 49 102 1.7 4.3 0.00 0.00 0.00 54 1018.2
20260506143029 49 53 6.1 6.1 0.00 0.00 0.00 54 1017.9
20260506142526 49 6 1.7 6.1 0.00 0.00 0.00 54 1018.0
20260506142024 48 8 1.7 4.3 0.00 0.00 0.00 55 1018.2
20260506141522 47 315 5.2 11.3 0.00 0.00 0.00 56 1018.2
20260506141020 46 238 1.7 8.7 0.00 0.00 0.00 59 1018.2
20260506140517 45 22 2.6 4.3 0.00 0.00 0.00 60 1018.1
20260506140014 45 43 1.7 6.1 0.00 0.00 0.00 61 1018.2
20260506135511 44 334 3.5 4.3 0.00 0.00 0.00 62 1018.1
20260506135007 44 60 2.6 5.2 0.00 0.00 0.00 62 1018.1
20260506134504 44 288 1.7 3.5 0.00 0.00 0.00 62 1018.1
20260506134000 44 58 0.9 4.3 0.00 0.00 0.00 63 1017.9
20260506133457 44 41 4.3 5.2 0.00 0.00 0.00 62 1017.9
20260506132954 44 81 1.7 5.2 0.00 0.00 0.00 62 1017.7
20260506132451 44 51 0.9 5.2 0.00 0.00 0.00 62 1017.6
20260506131948 44 67 3.5 5.2 0.00 0.00 0.00 62 1018.1
20260506131445 44 54 1.7 5.2 0.00 0.00 0.00 63 1017.6
20260506130942 44 340 0.0 2.6 0.00 0.00 0.00 63 1018.0
20260506130438 44 39 5.2 7.8 0.00 0.00 0.00 63 1018.0
20260506125936 44 29 3.5 5.2 0.00 0.00 0.00 63 1017.5
20260506125434 44 50 2.6 6.1 0.00 0.00 0.00 64 1017.5
20260506124932 44 37 5.2 5.2 0.00 0.00 0.00 64 1017.6
20260506124429 44 73 3.5 5.2 0.00 0.00 0.00 64 1017.6
20260506123927 44 52 5.2 6.1 0.00 0.00 0.00 64 1017.4
20260506123425 44 21 2.6 7.0 0.00 0.00 0.00 64 1017.3
20260506122922 44 70 4.3 7.0 0.00 0.00 0.00 63 1017.3
20260506122419 44 55 8.7 10.4 0.00 0.00 0.00 63 1017.0
20260506121917 44 317 3.5 9.6 0.00 0.00 0.00 63 1017.3
20260506121414 44 317 5.2 6.1 0.00 0.00 0.00 63 1016.6
20260506120911 44 321 4.3 6.1 0.00 0.00 0.00 63 1016.7
20260506120408 44 313 2.6 5.2 0.00 0.00 0.00 63 1016.9
20260506115906 44 63 4.3 7.8 0.00 0.00 0.00 63 1016.8
20260506115404 44 49 1.7 5.2 0.00 0.00 0.00 63 1016.8
20260506114902 44 44 3.5 3.5 0.00 0.00 0.00 63 1016.8
20260506114359 44 7 1.7 3.5 0.00 0.00 0.00 64 1016.7
20260506113858 44 37 0.9 5.2 0.00 0.00 0.00 63 1016.9
20260506113354 44 337 0.9 5.2 0.00 0.00 0.00 63 1016.9
20260506112851 44 80 0.9 2.6 0.00 0.00 0.00 63 1016.7
20260506112348 44 76 0.0 2.6 0.00 0.00 0.00 63 1016.7
20260506111845 44 2 1.7 2.6 0.00 0.00 0.00 64 1016.7
20260506111344 44 263 0.9 2.6 0.00 0.00 0.00 64 1016.9
20260506110841 44 357 1.7 1.7 0.00 0.00 0.00 64 1016.8
20260506110338 44 350 1.7 2.6 0.00 0.00 0.00 64 1016.8
20260506105835 44 69 0.9 1.7 0.00 0.00 0.00 65 1016.6
20260506105331 44 68 1.7 1.7 0.00 0.00 0.00 64 1016.4
20260506104829 44 317 0.9 3.5 0.00 0.00 0.00 64 1016.3
20260506104326 44 324 1.7 2.6 0.00 0.00 0.00 63 1016.4
20260506103824 44 71 1.7 1.7 0.00 0.00 0.00 63 1016.6
20260506103321 45 67 3.5 5.2 0.00 0.00 0.00 62 1016.4
20260506102819 45 49 0.0 3.5 0.00 0.00 0.00 63 1016.3
20260506102316 45 66 1.7 2.6 0.00 0.00 0.00 63 1016.3
20260506101813 44 330 1.7 1.7 0.00 0.00 0.00 64 1016.1
20260506101309 44 329 2.6 3.5 0.00 0.00 0.00 65 1016.2
20260506100807 44 8 1.7 5.2 0.00 0.00 0.00 65 1015.8
20260506100305 45 55 3.5 4.3 0.00 0.00 0.00 64 1016.2
20260506095804 45 67 1.7 2.6 0.00 0.00 0.00 65 1016.0
20260506095300 45 75 2.6 5.2 0.00 0.00 0.00 65 1016.1
20260506094756 45 56 1.7 5.2 0.00 0.00 0.00 66 1016.0
20260506094255 45 323 0.0 5.2 0.00 0.00 0.00 66 1016.1
20260506093753 45 328 3.5 3.5 0.00 0.00 0.00 67 1016.1
20260506093250 45 69 2.6 2.6 0.00 0.00 0.00 67 1016.1
20260506092748 45 343 0.0 1.7 0.00 0.00 0.00 67 1016.1
20260506092246 46 77 1.7 2.6 0.00 0.00 0.00 65 1016.2
20260506091743 46 89 1.7 5.2 0.00 0.00 0.00 65 1016.0
20260506091240 46 92 0.0 4.3 0.00 0.00 0.00 66 1016.1
20260506090738 46 321 1.7 3.5 0.00 0.00 0.00 67 1016.0
20260506090235 46 71 0.9 3.5 0.00 0.00 0.00 66 1015.8
20260506085731 46 33 1.7 4.3 0.00 0.00 0.00 66 1016.1
20260506085228 47 56 1.7 3.5 0.00 0.00 0.00 65 1015.8
20260506084724 47 82 1.7 5.2 0.00 0.00 0.00 65 1016.1
20260506084220 47 108 4.3 7.8 0.00 0.00 0.00 63 1015.6
20260506083718 47 66 3.5 4.3 0.00 0.00 0.00 62 1016.0
20260506083216 47 133 1.7 3.5 0.00 0.00 0.00 61 1016.0
20260506082713 48 84 1.7 2.6 0.00 0.00 0.00 59 1015.8
20260506082208 47 266 0.9 0.9 0.00 0.00 0.00 59 1016.0
20260506081706 47 302 0.0 2.6 0.00 0.00 0.00 61 1016.1
20260506081203 48 207 1.7 2.6 0.00 0.00 0.00 60 1016.2
20260506080701 48 189 1.7 2.6 0.00 0.00 0.00 59 1016.1
20260506080157 48 212 0.0 1.7 0.00 0.00 0.00 59 1016.0
20260506073141 49 224 1.7 1.7 0.00 0.00 0.00 59 1016.4
20260506072638 49 202 1.7 1.7 0.00 0.00 0.00 60 1016.1
20260506072136 49 247 2.6 2.6 0.00 0.00 0.00 58 1016.3
20260506071633 49 187 1.7 1.7 0.00 0.00 0.00 58 1016.3
20260506071131 49 254 1.7 3.5 0.00 0.00 0.00 58 1016.2
20260506070628 50 200 0.0 2.6 0.00 0.00 0.00 58 1016.4
20260506070125 50 195 1.7 2.6 0.00 0.00 0.00 59 1016.3
20260506062103 51 223 6.1 6.1 0.00 0.00 0.00 58 1016.2
20260506061558 51 190 1.7 3.5 0.00 0.00 0.00 58 1016.0
20260506061056 51 247 3.5 5.2 0.00 0.00 0.00 57 1016.1
20260506060554 51 234 1.7 5.2 0.00 0.00 0.00 55 1015.8
20260506051017 50 223 1.7 5.2 0.00 0.04 0.04 60 1015.8
20260506050515 50 210 0.9 4.3 0.00 0.04 0.04 59 1015.8
20260506045005 50 251 4.3 7.8 0.00 0.04 0.04 59 1015.8
20260506044503 50 231 5.2 7.8 0.00 0.04 0.04 59 1015.7
20260506043959 50 230 5.2 5.2 0.00 0.04 0.04 60 1015.8
20260506043456 50 231 3.5 9.6 0.00 0.04 0.04 59 1016.1
20260506042954 50 221 3.5 10.4 0.00 0.04 0.04 58 1016.0
20260506042449 50 201 2.6 6.1 0.00 0.04 0.04 58 1015.7
20260506041946 50 285 4.3 10.4 0.00 0.04 0.04 58 1015.6
20260506041444 50 233 3.5 7.0 0.00 0.04 0.04 59 1015.2
20260506040941 50 236 5.2 9.6 0.00 0.04 0.04 60 1015.5
20260506040438 50 226 3.5 8.7 0.00 0.04 0.04 61 1015.7
20260506035934 50 185 2.6 8.7 0.00 0.04 0.04 61 1015.2
20260506035432 50 224 4.3 6.1 0.00 0.04 0.04 62 1015.2
20260506034928 50 228 4.3 7.8 0.00 0.04 0.04 62 1015.2
20260506034426 50 220 7.0 9.6 0.00 0.04 0.04 62 1014.9
20260506033923 50 209 6.1 9.6 0.00 0.04 0.04 62 1015.2
20260506033420 50 242 1.7 6.1 0.00 0.04 0.04 63 1015.2
20260506032917 50 179 1.7 10.4 0.00 0.04 0.04 62 1014.6
20260506032414 50 201 2.6 7.0 0.00 0.04 0.04 62 1014.6
20260506031910 50 217 8.7 9.6 0.00 0.04 0.04 62 1014.6
20260506031408 50 204 3.5 15.6 0.00 0.04 0.04 62 1014.6
20260506030905 50 6 1.7 9.6 0.00 0.04 0.04 63 1014.8
20260506030403 50 255 7.0 12.2 0.00 0.04 0.04 63 1014.4
20260506025900 50 212 3.5 11.3 0.00 0.04 0.04 63 1014.5
20260506025356 50 221 5.2 11.3 0.00 0.04 0.04 63 1014.4
20260506024854 51 242 3.5 14.8 0.00 0.04 0.04 63 1014.3
20260506024351 51 207 3.5 10.4 0.00 0.04 0.04 62 1014.0
20260506023846 52 219 5.2 13.9 0.00 0.04 0.04 61 1013.8
20260506023343 52 198 6.1 12.2 0.00 0.04 0.04 60 1013.7
20260506022840 53 230 6.1 14.8 0.00 0.04 0.04 58 1013.6
20260506022338 55 215 9.6 11.3 0.00 0.04 0.04 55 1013.8
20260506021836 54 185 1.7 1.7 0.00 0.04 0.04 57 1013.1
20260506021332 54 164 0.0 0.9 0.00 0.04 0.04 58 1013.1
20260506020829 54 124 0.0 0.0 0.00 0.04 0.04 57 1013.0
20260506020327 55 124 0.0 0.9 0.00 0.04 0.04 56 1012.6
20260506015824 55 150 0.0 1.7 0.00 0.04 0.04 53 1012.4
20260506015322 55 124 0.0 3.5 0.00 0.04 0.04 52 1012.1
20260506014818 56 113 1.7 1.7 0.00 0.04 0.04 52 1012.5
20260506014315 56 85 0.9 3.5 0.00 0.04 0.04 50 1012.4
20260506013812 57 139 0.0 2.6 0.00 0.04 0.04 53 1012.3
20260506013309 57 28 0.9 1.7 0.00 0.04 0.04 52 1012.4
20260506012806 57 131 1.7 1.7 0.00 0.04 0.04 53 1012.0
20260506012307 57 183 1.7 1.7 0.00 0.04 0.04 52 1012.1
20260506011800 58 162 1.7 3.5 0.00 0.04 0.04 50 1012.0
20260506011256 58 130 1.7 4.3 0.00 0.04 0.04 49 1012.0
20260506010754 58 99 1.7 4.3 0.00 0.04 0.04 47 1012.1
20260506010252 58 36 3.5 3.5 0.00 0.04 0.04 47 1012.0
20260506005749 58 180 2.6 4.3 0.00 0.04 0.04 51 1012.5
20260506005245 57 122 1.7 1.7 0.00 0.04 0.04 51 1012.4
20260506004741 57 126 0.0 1.7 0.00 0.04 0.04 52 1012.1
20260506004239 57 55 0.0 0.0 0.00 0.04 0.04 51 1012.0
20260506003735 57 73 0.9 1.7 0.00 0.04 0.04 50 1012.1
20260506003231 57 275 0.0 1.7 0.00 0.04 0.04 50 1012.3
20260506002727 57 130 0.0 1.7 0.00 0.04 0.04 50 1012.3
20260506002224 57 142 0.0 1.7 0.00 0.04 0.04 49 1012.5
20260506001720 58 214 1.7 1.7 0.00 0.04 0.04 49 1012.1
20260506001217 58 205 1.7 4.3 0.00 0.04 0.04 49 1011.9
20260506000714 58 95 3.5 5.2 0.00 0.04 0.04 48 1011.9
20260506000212 58 43 2.6 4.3 0.00 0.04 0.04 48 1012.0
20260505235709 59 26 4.3 7.0 0.00 0.04 0.04 46 1012.1
20260505235207 59 177 1.7 3.5 0.00 0.04 0.04 48 1011.9
20260505234703 59 20 2.6 5.2 0.00 0.04 0.04 47 1011.9
20260505234200 62 327 1.7 5.2 0.00 0.04 0.04 44 1011.9
20260505233657 60 57 1.7 2.6 0.00 0.04 0.04 48 1012.0
20260505233155 59 188 1.7 2.6 0.00 0.04 0.04 49 1012.1
20260505232652 58 284 4.3 5.2 0.00 0.04 0.04 51 1011.9
20260505232149 58 214 2.6 2.6 0.00 0.04 0.04 52 1012.3
20260505231645 58 172 1.7 2.6 0.00 0.04 0.04 51 1012.7
20260505231144 59 107 6.1 7.8 0.00 0.04 0.04 49 1012.7
20260505230637 59 21 0.0 2.6 0.00 0.04 0.04 50 1012.5
20260505230133 58 151 1.7 1.7 0.00 0.04 0.04 49 1012.3
20260505225629 59 243 1.7 3.5 0.00 0.04 0.04 48 1012.6
20260505225125 58 163 1.7 3.5 0.00 0.04 0.04 58 1012.3
20260505224622 57 228 2.6 4.3 0.00 0.04 0.04 55 1012.4
20260505224120 57 55 0.9 2.6 0.00 0.04 0.04 56 1012.5
20260505223617 57 200 0.9 1.7 0.00 0.04 0.04 64 1012.5
20260505223113 56 217 4.3 4.3 0.00 0.04 0.04 68 1012.7
20260505222610 55 207 0.0 3.5 0.00 0.04 0.04 71 1012.8
20260505222106 54 50 1.7 3.5 0.00 0.04 0.04 75 1013.2
20260505221603 52 56 3.5 3.5 0.05 0.04 0.04 73 1013.6
20260505221059 52 61 3.5 3.5 0.09 0.04 0.04 75 1013.6
20260505220556 52 135 0.0 1.7 0.12 0.04 0.04 75 1013.8
20260505220054 52 109 0.9 4.3 0.09 0.02 0.02 73 1013.6
20260505215552 54 131 0.0 9.6 0.00 0.01 0.01 65 1013.7
20260505215050 55 79 4.3 8.7 0.00 0.01 0.01 61 1013.2
20260505214548 55 69 4.3 10.4 0.00 0.01 0.01 59 1013.6
20260505214044 57 88 4.3 12.2 0.00 0.01 0.01 56 1013.3
20260505213542 58 102 5.2 7.8 0.00 0.01 0.01 56 1013.4
20260505213038 59 112 2.6 3.5 0.00 0.01 0.01 50 1013.2
20260505212535 60 114 5.2 9.6 0.00 0.01 0.01 48 1013.2
20260505212032 60 46 2.6 7.8 0.00 0.01 0.01 48 1013.4
20260505211529 59 111 2.6 4.3 0.00 0.01 0.01 50 1013.1
20260505211025 60 108 2.6 6.1 0.00 0.01 0.01 50 1013.2
20260505210522 60 132 0.9 2.6 0.00 0.01 0.01 49 1013.2
20260505210020 60 75 1.7 7.8 0.00 0.01 0.01 48 1013.2
20260505205518 62 93 6.1 7.8 0.00 0.01 0.01 46 1013.3
20260505205014 63 257 0.9 5.2 0.00 0.01 0.01 46 1013.3
20260505204512 62 197 1.7 5.2 0.00 0.01 0.01 45 1013.0
20260505204009 61 95 0.0 8.7 0.00 0.01 0.01 46 1013.6
20260505203506 61 287 1.7 6.1 0.00 0.01 0.01 47 1013.6
20260505203003 61 122 1.7 3.5 0.00 0.01 0.01 49 1013.9
20260505202459 59 111 1.7 3.5 0.00 0.01 0.01 51 1013.7
20260505201954 60 317 1.7 3.5 0.00 0.01 0.01 50 1013.9
20260505201452 60 249 5.2 6.1 0.00 0.01 0.01 49 1013.6
20260505200949 60 192 2.6 5.2 0.00 0.01 0.01 49 1013.7
20260505200447 58 21 0.9 4.3 0.00 0.01 0.01 55 1013.9
20260505195943 56 257 0.0 3.5 0.00 0.01 0.01 59 1013.6
20260505195440 56 128 3.5 3.5 0.00 0.01 0.01 59 1013.9
20260505194937 56 256 0.0 1.7 0.00 0.01 0.01 58 1014.3
20260505194435 57 79 1.7 3.5 0.00 0.01 0.01 59 1014.0
20260505193934 57 121 1.7 3.5 0.00 0.01 0.01 61 1014.0
20260505193432 57 282 1.7 3.5 0.00 0.01 0.01 62 1013.9
20260505192930 56 109 1.7 5.2 0.00 0.01 0.01 62 1014.2
20260505192428 55 128 2.6 3.5 0.00 0.01 0.01 69 1014.0
20260505191925 55 228 1.7 3.5 0.00 0.01 0.01 66 1014.4
20260505191424 55 136 1.7 3.5 0.00 0.01 0.01 67 1014.4
20260505190920 54 89 1.7 3.5 0.00 0.01 0.01 72 1014.4
20260505190416 53 130 3.5 5.2 0.02 0.01 0.01 70 1014.4
20260505185911 52 120 2.6 3.5 0.05 0.01 0.01 76 1014.4
20260505185409 52 140 2.6 5.2 0.02 0.00 0.00 72 1014.3
20260505184904 53 138 4.3 7.0 0.00 0.00 0.00 69 1014.3
20260505184401 53 98 1.7 5.2 0.00 0.00 0.00 66 1014.4
20260505183859 54 129 4.3 9.6 0.00 0.00 0.00 61 1014.3
20260505183355 55 109 4.3 9.6 0.00 0.00 0.00 58 1014.4
20260505182852 56 126 2.6 9.6 0.00 0.00 0.00 54 1014.2
20260505182349 57 92 2.6 9.6 0.00 0.00 0.00 51 1014.4
20260505181846 58 99 4.3 5.2 0.00 0.00 0.00 50 1014.0
20260505181343 58 110 0.0 5.2 0.00 0.00 0.00 49 1014.0
20260505180839 58 54 6.1 12.2 0.00 0.00 0.00 48 1014.0
20260505180336 58 98 1.7 4.3 0.00 0.00 0.00 47 1013.9
20260505175832 59 65 6.1 7.8 0.00 0.00 0.00 46 1014.0
20260505175329 59 202 0.0 6.1 0.00 0.00 0.00 46 1013.9
20260505174825 59 142 6.1 8.7 0.00 0.00 0.00 46 1014.0
20260505174323 61 100 3.5 10.4 0.00 0.00 0.00 42 1014.0
20260505173819 61 181 0.9 5.2 0.00 0.00 0.00 43 1013.9
20260505173316 61 122 3.5 7.8 0.00 0.00 0.00 43 1014.2
20260505172813 59 212 1.7 3.5 0.00 0.00 0.00 45 1014.3
20260505172310 59 112 1.7 4.3 0.00 0.00 0.00 44 1014.0
20260505171804 59 172 0.9 3.5 0.00 0.00 0.00 45 1014.3
20260505171302 58 147 1.7 3.5 0.00 0.00 0.00 46 1014.0
20260505170758 56 74 1.7 4.3 0.00 0.00 0.00 48 1014.2
20260505170255 55 105 3.5 7.0 0.00 0.00 0.00 50 1014.8
20260505165755 55 104 4.3 5.2 0.00 0.00 0.00 50 1014.2
20260505165252 55 119 3.5 7.8 0.00 0.00 0.00 49 1014.3
20260505164748 55 228 1.7 3.5 0.00 0.00 0.00 50 1014.0
20260505164245 56 227 1.7 4.3 0.00 0.00 0.00 50 1014.2
20260505163743 55 123 1.7 5.2 0.00 0.00 0.00 52 1014.5
20260505163242 54 233 0.0 5.2 0.00 0.00 0.00 53 1014.2
20260505162739 54 169 3.5 3.5 0.00 0.00 0.00 54 1014.4
20260505162235 53 175 1.7 3.5 0.00 0.00 0.00 56 1014.4
20260505161732 53 195 3.5 5.2 0.00 0.00 0.00 56 1014.6
20260505161230 53 111 0.0 4.3 0.00 0.00 0.00 58 1014.6
20260505160727 53 164 1.7 5.2 0.00 0.00 0.00 58 1014.8
20260505160225 53 190 1.7 3.5 0.00 0.00 0.00 59 1014.9